Time,TemperatureF,DewpointF,PressureIn,WindDirection,WindDirectionDegrees,WindSpeedMPH,WindSpeedGustMPH,Humidity,HourlyPrecipIn,Conditions,Clouds,dailyrainin,SoftwareType,DateUTC
2013-07-01 00:01:00,70.4,60.1,29.90,East,84,0.0,1.0,70,0.00,CLR,,0.00,WeatherDisplay:10.37,2013-07-01 07:01:00,
2013-07-01 00:06:00,70.2,60.0,29.90,East,84,0.0,3.0,70,0.00,CLR,,0.00,WeatherDisplay:10.37,2013-07-01 07:06:00,
2013-07-01 00:16:00,69.9,59.7,29.90,East,93,0.0,1.0,70,0.00,CLR,,0.00,WeatherDisplay:10.37,2013-07-01 07:16:00,
2013-07-01 00:21:00,69.6,59.4,29.90,East,90,0.0,2.0,70,0.00,CLR,,0.00,WeatherDisplay:10.37,2013-07-01 07:21:00,
2013-07-01 00:31:00,69.3,59.5,29.90,ENE,74,0.0,0.0,71,0.00,CLR,,0.00,WeatherDisplay:10.37,2013-07-01 07:31:00,
2013-07-01 00:36:00,69.0,59.2,29.90,ENE,74,0.0,1.0,71,0.00,CLR,,0.00,WeatherDisplay:10.37,2013-07-01 07:36:00,
2013-07-01 00:46:00,68.6,59.6,29.91,ENE,74,0.0,1.0,73,0.00,CLR,,0.00,WeatherDisplay:10.37,2013-07-01 07:46:00,
2013-07-01 00:51:00,68.4,59.4,29.91,ENE,73,0.0,1.0,73,0.00,CLR,,0.00,WeatherDisplay:10.37,2013-07-01 07:51:00,
2013-07-01 00:56:00,68.2,59.6,29.91,ENE,74,0.0,1.0,74,0.00,CLR,,0.00,WeatherDisplay:10.37,2013-07-01 07:56:00,
2013-07-01 01:01:00,68.0,59.4,29.91,ENE,73,0.0,0.0,74,0.00,CLR,,0.00,WeatherDisplay:10.37,2013-07-01 08:01:00,
2013-07-01 01:06:00,67.7,59.5,29.91,ENE,74,0.0,0.0,75,0.00,CLR,,0.00,WeatherDisplay:10.37,2013-07-01 08:06:00,
2013-07-01 01:11:00,67.4,59.6,29.91,ENE,74,0.0,0.0,76,0.00,CLR,,0.00,WeatherDisplay:10.37,2013-07-01 08:11:00,
2013-07-01 01:16:00,67.2,59.7,29.91,ENE,74,0.0,0.0,77,0.00,CLR,,0.00,WeatherDisplay:10.37,2013-07-01 08:16:00,
2013-07-01 01:21:00,67.0,59.5,29.91,ENE,74,0.0,0.0,77,0.00,CLR,,0.00,WeatherDisplay:10.37,2013-07-01 08:21:00,
2013-07-01 01:26:00,66.9,59.8,29.91,ENE,74,0.0,0.0,78,0.00,CLR,,0.00,WeatherDisplay:10.37,2013-07-01 08:26:00,
2013-07-01 01:31:00,66.8,59.7,29.91,ENE,74,0.0,0.0,78,0.00,CLR,,0.00,WeatherDisplay:10.37,2013-07-01 08:31:00,
2013-07-01 01:36:00,66.7,59.6,29.91,ENE,74,0.0,0.0,78,0.00,CLR,,0.00,WeatherDisplay:10.37,2013-07-01 08:36:00,
2013-07-01 01:41:00,66.7,59.6,29.91,ENE,74,0.0,0.0,78,0.00,CLR,,0.00,WeatherDisplay:10.37,2013-07-01 08:41:00,
2013-07-01 01:46:00,66.6,59.5,29.91,ENE,74,0.0,0.0,78,0.00,CLR,,0.00,WeatherDisplay:10.37,2013-07-01 08:46:00,
2013-07-01 01:51:00,66.4,59.7,29.91,ENE,74,0.0,0.0,79,0.00,CLR,,0.00,WeatherDisplay:10.37,2013-07-01 08:51:00,
2013-07-01 01:56:00,66.3,59.6,29.91,ENE,73,0.0,1.0,79,0.00,CLR,,0.00,WeatherDisplay:10.37,2013-07-01 08:56:00,
2013-07-01 02:01:00,66.1,59.4,29.91,ENE,73,0.0,0.0,79,0.00,CLR,,0.00,WeatherDisplay:10.37,2013-07-01 09:01:00,
2013-07-01 02:06:00,65.9,59.2,29.91,ENE,74,0.0,3.0,79,0.00,CLR,,0.00,WeatherDisplay:10.37,2013-07-01 09:06:00,
2013-07-01 02:11:00,65.7,59.4,29.91,ENE,74,0.0,0.0,80,0.00,CLR,,0.00,WeatherDisplay:10.37,2013-07-01 09:11:00,
2013-07-01 02:16:00,65.5,59.5,29.91,ENE,74,0.0,0.0,81,0.00,CLR,,0.00,WeatherDisplay:10.37,2013-07-01 09:16:00,
2013-07-01 02:21:00,65.3,59.3,29.91,ENE,74,0.0,1.0,81,0.00,CLR,,0.00,WeatherDisplay:10.37,2013-07-01 09:21:00,
2013-07-01 02:26:00,65.2,59.6,29.91,ENE,74,0.0,0.0,82,0.00,CLR,,0.00,WeatherDisplay:10.37,2013-07-01 09:26:00,
2013-07-01 02:31:00,65.0,59.7,29.91,ENE,74,0.0,0.0,83,0.00,CLR,,0.00,WeatherDisplay:10.37,2013-07-01 09:31:00,
2013-07-01 02:36:00,64.9,59.6,29.91,ENE,74,0.0,0.0,83,0.00,CLR,,0.00,WeatherDisplay:10.37,2013-07-01 09:36:00,
2013-07-01 02:41:00,64.7,59.8,29.91,ENE,74,0.0,0.0,84,0.00,CLR,,0.00,WeatherDisplay:10.37,2013-07-01 09:41:00,
2013-07-01 02:46:00,64.6,59.7,29.91,ENE,73,0.0,1.0,84,0.00,CLR,,0.00,WeatherDisplay:10.37,2013-07-01 09:46:00,
2013-07-01 02:51:00,64.6,60.0,29.91,ENE,74,0.0,0.0,85,0.00,CLR,,0.00,WeatherDisplay:10.37,2013-07-01 09:51:00,
2013-07-01 02:56:00,64.6,60.0,29.91,ENE,74,0.0,0.0,85,0.00,CLR,,0.00,WeatherDisplay:10.37,2013-07-01 09:56:00,
2013-07-01 03:01:00,64.6,59.6,29.91,ENE,74,0.0,0.0,84,0.00,CLR,,0.00,WeatherDisplay:10.37,2013-07-01 10:01:00,
2013-07-01 03:11:00,64.4,59.8,29.91,ENE,73,0.0,0.0,85,0.00,CLR,,0.00,WeatherDisplay:10.37,2013-07-01 10:11:00,
2013-07-01 03:16:00,64.2,59.6,29.91,ENE,74,0.0,0.0,85,0.00,CLR,,0.00,WeatherDisplay:10.37,2013-07-01 10:16:00,
2013-07-01 03:21:00,64.1,59.5,29.92,ENE,74,0.0,0.0,85,0.00,CLR,,0.00,WeatherDisplay:10.37,2013-07-01 10:21:00,
2013-07-01 03:26:00,64.0,59.4,29.91,ENE,73,0.0,0.0,85,0.00,CLR,,0.00,WeatherDisplay:10.37,2013-07-01 10:26:00,
2013-07-01 03:31:00,63.9,59.6,29.92,ENE,74,0.0,0.0,86,0.00,CLR,,0.00,WeatherDisplay:10.37,2013-07-01 10:31:00,
2013-07-01 03:36:00,63.9,59.6,29.92,ENE,74,0.0,0.0,86,0.00,CLR,,0.00,WeatherDisplay:10.37,2013-07-01 10:36:00,
2013-07-01 03:41:00,63.8,59.6,29.92,ENE,74,0.0,0.0,86,0.00,CLR,,0.00,WeatherDisplay:10.37,2013-07-01 10:41:00,
2013-07-01 03:46:00,63.7,59.1,29.92,ENE,74,0.0,1.0,85,0.00,CLR,,0.00,WeatherDisplay:10.37,2013-07-01 10:46:00,
2013-07-01 03:51:00,63.6,59.0,29.92,ENE,74,0.0,1.0,85,0.00,CLR,,0.00,WeatherDisplay:10.37,2013-07-01 10:51:00,
2013-07-01 03:56:00,63.6,59.0,29.92,ENE,74,0.0,0.0,85,0.00,CLR,,0.00,WeatherDisplay:10.37,2013-07-01 10:56:00,
2013-07-01 04:01:00,63.5,58.9,29.92,ENE,74,0.0,1.0,85,0.00,CLR,,0.00,WeatherDisplay:10.37,2013-07-01 11:01:00,
2013-07-01 04:06:00,63.6,59.0,29.92,ENE,74,0.0,1.0,85,0.00,CLR,,0.00,WeatherDisplay:10.37,2013-07-01 11:06:00,
2013-07-01 04:11:00,63.6,59.0,29.92,ENE,74,0.0,0.0,85,0.00,CLR,,0.00,WeatherDisplay:10.37,2013-07-01 11:11:00,
2013-07-01 04:16:00,63.6,59.0,29.92,SE,136,0.0,1.0,85,0.00,CLR,,0.00,WeatherDisplay:10.37,2013-07-01 11:16:00,
2013-07-01 04:21:00,63.5,58.6,29.92,South,174,0.0,0.0,84,0.00,CLR,,0.00,WeatherDisplay:10.37,2013-07-01 11:21:00,
2013-07-01 04:26:00,63.3,58.4,29.92,South,174,0.0,0.0,84,0.00,CLR,,0.00,WeatherDisplay:10.37,2013-07-01 11:26:00,
2013-07-01 04:31:00,63.3,58.4,29.92,South,174,0.0,1.0,84,0.00,CLR,,0.00,WeatherDisplay:10.37,2013-07-01 11:31:00,
2013-07-01 04:36:00,63.5,58.6,29.93,South,174,0.0,1.0,84,0.00,CLR,,0.00,WeatherDisplay:10.37,2013-07-01 11:36:00,
2013-07-01 04:41:00,63.5,58.9,29.92,South,174,0.0,0.0,85,0.00,CLR,,0.00,WeatherDisplay:10.37,2013-07-01 11:41:00,
2013-07-01 04:46:00,63.3,58.7,29.93,South,174,0.0,0.0,85,0.00,CLR,,0.00,WeatherDisplay:10.37,2013-07-01 11:46:00,
2013-07-01 04:51:00,63.1,58.5,29.93,South,174,0.0,0.0,85,0.00,CLR,,0.00,WeatherDisplay:10.37,2013-07-01 11:51:00,
2013-07-01 04:56:00,62.9,58.7,29.93,South,174,0.0,0.0,86,0.00,CLR,,0.00,WeatherDisplay:10.37,2013-07-01 11:56:00,
2013-07-01 05:01:00,62.9,58.6,29.93,South,174,0.0,0.0,86,0.00,CLR,,0.00,WeatherDisplay:10.37,2013-07-01 12:01:00,
2013-07-01 05:06:00,62.7,58.4,29.94,South,174,0.0,0.0,86,0.00,CLR,,0.00,WeatherDisplay:10.37,2013-07-01 12:06:00,
2013-07-01 05:16:00,62.4,58.5,29.94,South,174,0.0,0.0,87,0.00,CLR,,0.00,WeatherDisplay:10.37,2013-07-01 12:16:00,
2013-07-01 05:21:00,62.5,58.6,29.94,South,174,0.0,0.0,87,0.00,CLR,,0.00,WeatherDisplay:10.37,2013-07-01 12:21:00,
2013-07-01 05:26:00,62.4,58.5,29.94,South,174,0.0,0.0,87,0.00,CLR,,0.00,WeatherDisplay:10.37,2013-07-01 12:26:00,
2013-07-01 05:31:00,62.3,58.1,29.94,South,174,0.0,0.0,86,0.00,CLR,,0.00,WeatherDisplay:10.37,2013-07-01 12:31:00,
2013-07-01 05:36:00,62.2,58.3,29.94,South,174,0.0,0.0,87,0.00,CLR,,0.00,WeatherDisplay:10.37,2013-07-01 12:36:00,
2013-07-01 05:41:00,62.1,58.2,29.94,South,174,0.0,0.0,87,0.00,CLR,,0.00,WeatherDisplay:10.37,2013-07-01 12:41:00,
2013-07-01 05:46:00,62.0,58.1,29.94,South,174,0.0,0.0,87,0.00,CLR,,0.00,WeatherDisplay:10.37,2013-07-01 12:46:00,
2013-07-01 05:51:00,61.9,58.0,29.94,South,174,0.0,0.0,87,0.00,CLR,,0.00,WeatherDisplay:10.37,2013-07-01 12:51:00,
2013-07-01 05:56:00,61.9,58.0,29.94,South,174,0.0,0.0,87,0.00,CLR,,0.00,WeatherDisplay:10.37,2013-07-01 12:56:00,
2013-07-01 06:01:00,61.9,58.0,29.94,South,174,0.0,0.0,87,0.00,CLR,,0.00,WeatherDisplay:10.37,2013-07-01 13:01:00,
2013-07-01 06:06:00,62.1,58.2,29.94,South,174,0.0,0.0,87,0.00,CLR,,0.00,WeatherDisplay:10.37,2013-07-01 13:06:00,
2013-07-01 06:11:00,62.3,58.4,29.94,South,174,0.0,0.0,87,0.00,CLR,,0.00,WeatherDisplay:10.37,2013-07-01 13:11:00,
2013-07-01 06:16:00,62.8,58.5,29.94,South,174,0.0,0.0,86,0.00,CLR,,0.00,WeatherDisplay:10.37,2013-07-01 13:16:00,
2013-07-01 06:21:00,64.0,59.1,29.94,South,174,0.0,0.0,84,0.00,CLR,,0.00,WeatherDisplay:10.37,2013-07-01 13:21:00,
2013-07-01 06:26:00,65.6,59.6,29.94,South,174,0.0,0.0,81,0.00,CLR,,0.00,WeatherDisplay:10.37,2013-07-01 13:26:00,
2013-07-01 06:31:00,66.9,60.1,29.95,South,174,0.0,0.0,79,0.00,CLR,,0.00,WeatherDisplay:10.37,2013-07-01 13:31:00,
2013-07-01 06:36:00,68.3,60.4,29.95,South,174,0.0,0.0,76,0.00,CLR,,0.00,WeatherDisplay:10.37,2013-07-01 13:36:00,
2013-07-01 06:41:00,69.3,59.9,29.95,South,174,0.0,1.0,72,0.00,CLR,,0.00,WeatherDisplay:10.37,2013-07-01 13:41:00,
2013-07-01 06:46:00,69.6,59.4,29.95,South,175,0.0,1.0,70,0.00,CLR,,0.00,WeatherDisplay:10.37,2013-07-01 13:46:00,
2013-07-01 06:51:00,69.5,59.3,29.95,South,174,0.0,0.0,70,0.00,CLR,,0.00,WeatherDisplay:10.37,2013-07-01 13:51:00,
2013-07-01 06:56:00,69.7,59.4,29.95,SSE,166,0.0,2.0,70,0.00,CLR,,0.00,WeatherDisplay:10.37,2013-07-01 13:56:00,
2013-07-01 07:01:00,69.9,60.1,29.95,ESE,114,0.0,1.0,71,0.00,CLR,,0.00,WeatherDisplay:10.37,2013-07-01 14:01:00,
2013-07-01 07:06:00,70.1,59.0,29.95,East,97,1.0,2.0,68,0.00,CLR,,0.00,WeatherDisplay:10.37,2013-07-01 14:06:00,
2013-07-01 07:11:00,70.2,59.2,29.95,ESE,114,0.0,1.0,68,0.00,CLR,,0.00,WeatherDisplay:10.37,2013-07-01 14:11:00,
2013-07-01 07:16:00,70.6,59.2,29.96,SE,127,0.0,1.0,67,0.00,CLR,,0.00,WeatherDisplay:10.37,2013-07-01 14:16:00,
2013-07-01 07:21:00,70.6,58.7,29.96,East,88,0.0,1.0,66,0.00,CLR,,0.00,WeatherDisplay:10.37,2013-07-01 14:21:00,
2013-07-01 07:26:00,70.0,59.0,29.96,ENE,72,0.0,1.0,68,0.00,CLR,,0.00,WeatherDisplay:10.37,2013-07-01 14:26:00,
2013-07-01 07:31:00,69.6,59.0,29.96,NNE,21,0.0,1.0,69,0.00,CLR,,0.00,WeatherDisplay:10.37,2013-07-01 14:31:00,
2013-07-01 07:36:00,69.5,58.9,29.96,NE,35,1.0,3.0,69,0.00,CLR,,0.00,WeatherDisplay:10.37,2013-07-01 14:36:00,
2013-07-01 07:41:00,69.3,59.1,29.95,ENE,67,0.0,3.0,70,0.00,CLR,,0.00,WeatherDisplay:10.37,2013-07-01 14:41:00,
2013-07-01 07:46:00,69.2,58.6,29.95,East,94,0.0,2.0,69,0.00,CLR,,0.00,WeatherDisplay:10.37,2013-07-01 14:46:00,
2013-07-01 07:51:00,69.4,59.2,29.95,NE,38,0.0,3.0,70,0.00,CLR,,0.00,WeatherDisplay:10.37,2013-07-01 14:51:00,
2013-07-01 07:56:00,69.6,59.8,29.95,North,4,0.0,3.0,71,0.00,CLR,,0.00,WeatherDisplay:10.37,2013-07-01 14:56:00,
2013-07-01 08:01:00,69.5,59.3,29.95,NE,49,0.0,2.0,70,0.00,CLR,,0.00,WeatherDisplay:10.37,2013-07-01 15:01:00,
2013-07-01 08:06:00,69.7,59.1,29.95,East,79,1.0,4.0,69,0.00,CLR,,0.00,WeatherDisplay:10.37,2013-07-01 15:06:00,
2013-07-01 08:11:00,70.2,59.1,29.95,NNE,12,0.0,3.0,68,0.00,CLR,,0.00,WeatherDisplay:10.37,2013-07-01 15:11:00,
2013-07-01 08:16:00,70.9,59.4,29.95,North,351,0.0,2.0,67,0.00,CLR,,0.00,WeatherDisplay:10.37,2013-07-01 15:16:00,
2013-07-01 08:21:00,71.7,59.7,29.96,ENE,66,0.0,2.0,66,0.00,CLR,,0.00,WeatherDisplay:10.37,2013-07-01 15:21:00,
2013-07-01 08:26:00,72.6,59.7,29.95,East,93,0.0,2.0,64,0.00,CLR,,0.00,WeatherDisplay:10.37,2013-07-01 15:26:00,
2013-07-01 08:31:00,73.1,59.8,29.95,East,89,1.0,2.0,63,0.00,CLR,,0.00,WeatherDisplay:10.37,2013-07-01 15:31:00,
2013-07-01 08:36:00,73.6,60.6,29.95,East,92,0.0,2.0,64,0.00,CLR,,0.00,WeatherDisplay:10.37,2013-07-01 15:36:00,
2013-07-01 08:41:00,74.3,60.4,29.95,East,97,1.0,3.0,62,0.00,CLR,,0.00,WeatherDisplay:10.37,2013-07-01 15:41:00,
2013-07-01 08:46:00,74.4,60.1,29.95,East,87,1.0,2.0,61,0.00,CLR,,0.00,WeatherDisplay:10.37,2013-07-01 15:46:00,
2013-07-01 08:51:00,75.0,60.6,29.95,ENE,73,1.0,2.0,61,0.00,CLR,,0.00,WeatherDisplay:10.37,2013-07-01 15:51:00,
2013-07-01 08:56:00,75.4,61.4,29.94,East,91,1.0,2.0,62,0.00,CLR,,0.00,WeatherDisplay:10.37,2013-07-01 15:56:00,
2013-07-01 09:01:00,75.7,60.8,29.94,ESE,102,0.0,2.0,60,0.00,CLR,,0.00,WeatherDisplay:10.37,2013-07-01 16:01:00,
2013-07-01 09:11:00,76.3,61.4,29.94,ESE,103,0.0,3.0,60,0.00,CLR,,0.00,WeatherDisplay:10.37,2013-07-01 16:11:00,
2013-07-01 09:16:00,76.8,61.8,29.93,East,100,0.0,1.0,60,0.00,CLR,,0.00,WeatherDisplay:10.37,2013-07-01 16:16:00,
2013-07-01 09:21:00,77.4,61.5,29.93,ENE,67,1.0,3.0,58,0.00,CLR,,0.00,WeatherDisplay:10.37,2013-07-01 16:21:00,
2013-07-01 09:26:00,77.2,61.3,29.93,NE,44,1.0,3.0,58,0.00,CLR,,0.00,WeatherDisplay:10.37,2013-07-01 16:26:00,
2013-07-01 09:36:00,78.1,61.1,29.94,East,94,1.0,3.0,56,0.00,CLR,,0.00,WeatherDisplay:10.37,2013-07-01 16:36:00,
2013-07-01 09:41:00,78.1,61.1,29.94,ENE,63,2.0,4.0,56,0.00,CLR,,0.00,WeatherDisplay:10.37,2013-07-01 16:41:00,
2013-07-01 09:46:00,78.1,61.1,29.94,NE,56,1.0,3.0,56,0.00,CLR,,0.00,WeatherDisplay:10.37,2013-07-01 16:46:00,
2013-07-01 09:51:00,78.5,61.5,29.93,North,4,1.0,3.0,56,0.00,CLR,,0.00,WeatherDisplay:10.37,2013-07-01 16:51:00,
2013-07-01 09:56:00,78.9,61.4,29.93,NE,47,1.0,3.0,55,0.00,CLR,,0.00,WeatherDisplay:10.37,2013-07-01 16:56:00,
2013-07-01 10:06:00,79.1,61.6,29.92,East,90,1.0,3.0,55,0.00,CLR,,0.00,WeatherDisplay:10.37,2013-07-01 17:06:00,
2013-07-01 10:11:00,79.4,62.3,29.92,East,84,0.0,2.0,56,0.00,CLR,,0.00,WeatherDisplay:10.37,2013-07-01 17:11:00,
2013-07-01 10:21:00,80.0,62.4,29.92,ENE,73,2.0,7.0,55,0.00,CLR,,0.00,WeatherDisplay:10.37,2013-07-01 17:21:00,
2013-07-01 10:26:00,79.9,62.8,29.92,ESE,117,1.0,4.0,56,0.00,CLR,,0.00,WeatherDisplay:10.37,2013-07-01 17:26:00,
2013-07-01 10:31:00,80.6,62.9,29.92,North,5,1.0,3.0,55,0.00,CLR,,0.00,WeatherDisplay:10.37,2013-07-01 17:31:00,
2013-07-01 10:36:00,81.0,63.8,29.91,NNE,32,1.0,4.0,56,0.00,CLR,,0.00,WeatherDisplay:10.37,2013-07-01 17:36:00,
2013-07-01 10:41:00,81.1,62.3,29.91,NNE,33,1.0,5.0,53,0.00,CLR,,0.00,WeatherDisplay:10.37,2013-07-01 17:41:00,
2013-07-01 10:46:00,81.1,62.4,29.91,SE,134,1.0,4.0,53,0.00,CLR,,0.00,WeatherDisplay:10.37,2013-07-01 17:46:00,
2013-07-01 10:51:00,81.2,63.0,29.91,ESE,108,2.0,3.0,54,0.00,CLR,,0.00,WeatherDisplay:10.37,2013-07-01 17:51:00,
2013-07-01 10:56:00,81.8,61.9,29.91,NE,51,1.0,4.0,51,0.00,CLR,,0.00,WeatherDisplay:10.37,2013-07-01 17:56:00,
2013-07-01 11:01:00,82.0,62.1,29.91,ENE,71,1.0,3.0,51,0.00,CLR,,0.00,WeatherDisplay:10.37,2013-07-01 18:01:00,
2013-07-01 11:06:00,81.8,62.5,29.91,ESE,118,0.0,2.0,52,0.00,CLR,,0.00,WeatherDisplay:10.37,2013-07-01 18:06:00,
2013-07-01 11:11:00,82.4,63.6,29.92,ENE,73,1.0,3.0,53,0.00,CLR,,0.00,WeatherDisplay:10.37,2013-07-01 18:11:00,
2013-07-01 11:16:00,83.0,63.5,29.92,NNE,16,1.0,2.0,52,0.00,CLR,,0.00,WeatherDisplay:10.37,2013-07-01 18:16:00,
2013-07-01 11:26:00,81.8,61.9,29.92,WNW,283,2.0,7.0,51,0.00,CLR,,0.00,WeatherDisplay:10.37,2013-07-01 18:26:00,
2013-07-01 11:31:00,80.6,61.9,29.92,WSW,251,1.0,6.0,53,0.00,CLR,,0.00,WeatherDisplay:10.37,2013-07-01 18:31:00,
2013-07-01 11:36:00,80.5,61.8,29.91,WSW,249,3.0,5.0,53,0.00,CLR,,0.00,WeatherDisplay:10.37,2013-07-01 18:36:00,
2013-07-01 11:41:00,79.4,61.8,29.91,WNW,291,2.0,7.0,55,0.00,CLR,,0.00,WeatherDisplay:10.37,2013-07-01 18:41:00,
2013-07-01 11:46:00,79.3,61.7,29.91,West,266,3.0,8.0,55,0.00,CLR,,0.00,WeatherDisplay:10.37,2013-07-01 18:46:00,
2013-07-01 11:51:00,79.8,61.6,29.92,West,270,3.0,7.0,54,0.00,CLR,,0.00,WeatherDisplay:10.37,2013-07-01 18:51:00,
2013-07-01 11:56:00,79.5,61.9,29.92,WNW,285,2.0,7.0,55,0.00,CLR,,0.00,WeatherDisplay:10.37,2013-07-01 18:56:00,
2013-07-01 12:01:00,79.4,61.8,29.92,WNW,286,1.0,6.0,55,0.00,CLR,,0.00,WeatherDisplay:10.37,2013-07-01 19:01:00,
2013-07-01 12:11:00,80.8,62.6,29.93,West,275,0.0,7.0,54,0.00,CLR,,0.00,WeatherDisplay:10.37,2013-07-01 19:11:00,
2013-07-01 12:16:00,80.8,62.1,29.93,WSW,251,2.0,4.0,53,0.00,CLR,,0.00,WeatherDisplay:10.37,2013-07-01 19:16:00,
2013-07-01 12:21:00,80.8,62.6,29.93,West,262,2.0,4.0,54,0.00,CLR,,0.00,WeatherDisplay:10.37,2013-07-01 19:21:00,
2013-07-01 12:26:00,80.9,62.7,29.93,West,259,2.0,7.0,54,0.00,CLR,,0.00,WeatherDisplay:10.37,2013-07-01 19:26:00,
2013-07-01 12:31:00,81.0,62.3,29.93,WSW,247,2.0,5.0,53,0.00,CLR,,0.00,WeatherDisplay:10.37,2013-07-01 19:31:00,
2013-07-01 12:41:00,80.7,62.5,29.93,West,263,1.0,4.0,54,0.00,CLR,,0.00,WeatherDisplay:10.37,2013-07-01 19:41:00,
2013-07-01 12:46:00,80.5,61.8,29.94,West,260,3.0,8.0,53,0.00,CLR,,0.00,WeatherDisplay:10.37,2013-07-01 19:46:00,
2013-07-01 12:51:00,80.2,62.0,29.93,West,265,1.0,8.0,54,0.00,CLR,,0.00,WeatherDisplay:10.37,2013-07-01 19:51:00,
2013-07-01 12:56:00,80.5,62.8,29.93,West,260,1.0,4.0,55,0.00,CLR,,0.00,WeatherDisplay:10.37,2013-07-01 19:56:00,
2013-07-01 13:01:00,81.0,62.2,29.93,WSW,237,1.0,5.0,53,0.00,CLR,,0.00,WeatherDisplay:10.37,2013-07-01 20:01:00,
2013-07-01 13:06:00,81.1,62.9,29.93,WSW,252,1.0,6.0,54,0.00,CLR,,0.00,WeatherDisplay:10.37,2013-07-01 20:06:00,
2013-07-01 13:11:00,81.8,62.4,29.93,WSW,246,1.0,6.0,52,0.00,CLR,,0.00,WeatherDisplay:10.37,2013-07-01 20:11:00,
2013-07-01 13:16:00,81.8,62.5,29.93,WSW,247,1.0,7.0,52,0.00,CLR,,0.00,WeatherDisplay:10.37,2013-07-01 20:16:00,
2013-07-01 13:26:00,82.7,63.3,29.93,WSW,256,1.0,5.0,52,0.00,CLR,,0.00,WeatherDisplay:10.37,2013-07-01 20:26:00,
2013-07-01 13:36:00,83.3,62.7,29.92,West,261,2.0,5.0,50,0.00,CLR,,0.00,WeatherDisplay:10.37,2013-07-01 20:36:00,
2013-07-01 13:41:00,83.4,62.2,29.92,WSW,242,1.0,4.0,49,0.00,CLR,,0.00,WeatherDisplay:10.37,2013-07-01 20:41:00,
2013-07-01 13:46:00,83.6,62.5,29.92,SW,217,0.0,4.0,49,0.00,CLR,,0.00,WeatherDisplay:10.37,2013-07-01 20:46:00,
2013-07-01 13:51:00,84.4,63.1,29.93,WSW,247,2.0,5.0,49,0.00,CLR,,0.00,WeatherDisplay:10.37,2013-07-01 20:51:00,
2013-07-01 13:56:00,84.3,63.1,29.93,WNW,303,1.0,4.0,49,0.00,CLR,,0.00,WeatherDisplay:10.37,2013-07-01 20:56:00,
2013-07-01 14:01:00,85.2,63.9,29.93,NNW,338,1.0,3.0,49,0.00,CLR,,0.00,WeatherDisplay:10.37,2013-07-01 21:01:00,
2013-07-01 14:06:00,85.7,63.8,29.93,West,278,1.0,3.0,48,0.00,CLR,,0.00,WeatherDisplay:10.37,2013-07-01 21:06:00,
2013-07-01 14:11:00,86.4,63.8,29.93,WNW,282,1.0,2.0,47,0.00,CLR,,0.00,WeatherDisplay:10.37,2013-07-01 21:11:00,
2013-07-01 14:16:00,86.4,65.0,29.93,ENE,57,1.0,3.0,49,0.00,CLR,,0.00,WeatherDisplay:10.37,2013-07-01 21:16:00,
2013-07-01 14:26:00,86.4,63.2,29.92,NNW,333,1.0,3.0,46,0.00,CLR,,0.00,WeatherDisplay:10.37,2013-07-01 21:26:00,
2013-07-01 14:31:00,86.5,62.0,29.92,NW,321,2.0,5.0,44,0.00,CLR,,0.00,WeatherDisplay:10.37,2013-07-01 21:31:00,
2013-07-01 14:36:00,86.1,61.7,29.93,West,267,1.0,3.0,44,0.00,CLR,,0.00,WeatherDisplay:10.37,2013-07-01 21:36:00,
2013-07-01 14:41:00,86.1,62.2,29.93,WSW,253,2.0,6.0,45,0.00,CLR,,0.00,WeatherDisplay:10.37,2013-07-01 21:41:00,
2013-07-01 14:46:00,86.5,63.9,29.92,SSE,158,0.0,2.0,47,0.00,CLR,,0.00,WeatherDisplay:10.37,2013-07-01 21:46:00,
2013-07-01 14:51:00,87.3,63.3,29.93,SE,132,1.0,3.0,45,0.00,CLR,,0.00,WeatherDisplay:10.37,2013-07-01 21:51:00,
2013-07-01 14:56:00,87.7,63.0,29.93,ENE,78,1.0,3.0,44,0.00,CLR,,0.00,WeatherDisplay:10.37,2013-07-01 21:56:00,
2013-07-01 15:01:00,87.3,62.7,29.93,West,274,5.0,6.0,44,0.00,CLR,,0.00,WeatherDisplay:10.37,2013-07-01 22:01:00,
2013-07-01 15:06:00,87.1,63.1,29.93,WSW,249,3.0,9.0,45,0.00,CLR,,0.00,WeatherDisplay:10.37,2013-07-01 22:06:00,
2013-07-01 15:11:00,85.9,62.8,29.93,West,263,1.0,9.0,46,0.00,CLR,,0.00,WeatherDisplay:10.37,2013-07-01 22:11:00,
2013-07-01 15:16:00,86.0,63.4,29.93,West,262,1.0,5.0,47,0.00,CLR,,0.00,WeatherDisplay:10.37,2013-07-01 22:16:00,
2013-07-01 15:21:00,86.5,62.6,29.93,West,269,2.0,4.0,45,0.00,CLR,,0.00,WeatherDisplay:10.37,2013-07-01 22:21:00,
2013-07-01 15:26:00,86.5,62.0,29.92,West,260,1.0,3.0,44,0.00,CLR,,0.00,WeatherDisplay:10.37,2013-07-01 22:26:00,
2013-07-01 15:31:00,86.7,62.2,29.93,SSW,211,1.0,8.0,44,0.00,CLR,,0.00,WeatherDisplay:10.37,2013-07-01 22:31:00,
2013-07-01 15:36:00,87.1,63.2,29.93,SSW,200,1.0,3.0,45,0.00,CLR,,0.00,WeatherDisplay:10.37,2013-07-01 22:36:00,
2013-07-01 15:41:00,87.4,62.2,29.93,WSW,255,2.0,5.0,43,0.00,CLR,,0.00,WeatherDisplay:10.37,2013-07-01 22:41:00,
2013-07-01 15:46:00,87.2,62.6,29.93,West,264,1.0,6.0,44,0.00,CLR,,0.00,WeatherDisplay:10.37,2013-07-01 22:46:00,
2013-07-01 15:51:00,87.3,64.0,29.93,West,262,1.0,3.0,46,0.00,CLR,,0.00,WeatherDisplay:10.37,2013-07-01 22:51:00,
2013-07-01 15:56:00,87.4,64.0,29.93,SW,232,1.0,5.0,46,0.00,CLR,,0.00,WeatherDisplay:10.37,2013-07-01 22:56:00,
2013-07-01 16:01:00,87.6,64.9,29.93,SW,234,1.0,3.0,47,0.00,CLR,,0.00,WeatherDisplay:10.37,2013-07-01 23:01:00,
2013-07-01 16:06:00,87.8,65.1,29.93,West,269,1.0,3.0,47,0.00,CLR,,0.00,WeatherDisplay:10.37,2013-07-01 23:06:00,
2013-07-01 16:11:00,87.3,64.0,29.93,West,277,1.0,5.0,46,0.00,CLR,,0.00,WeatherDisplay:10.37,2013-07-01 23:11:00,
2013-07-01 16:16:00,87.1,64.4,29.92,West,274,1.0,4.0,47,0.00,CLR,,0.00,WeatherDisplay:10.37,2013-07-01 23:16:00,
2013-07-01 16:21:00,87.3,64.0,29.92,WNW,283,1.0,3.0,46,0.00,CLR,,0.00,WeatherDisplay:10.37,2013-07-01 23:21:00,
2013-07-01 16:26:00,87.0,64.3,29.92,ENE,76,1.0,4.0,47,0.00,CLR,,0.00,WeatherDisplay:10.37,2013-07-01 23:26:00,
2013-07-01 16:31:00,86.6,64.6,29.93,NE,51,1.0,3.0,48,0.00,CLR,,0.00,WeatherDisplay:10.37,2013-07-01 23:31:00,
2013-07-01 16:36:00,86.6,64.6,29.93,West,275,2.0,6.0,48,0.00,CLR,,0.00,WeatherDisplay:10.37,2013-07-01 23:36:00,
2013-07-01 16:41:00,86.4,65.0,29.93,West,273,0.0,5.0,49,0.00,CLR,,0.00,WeatherDisplay:10.37,2013-07-01 23:41:00,
2013-07-01 16:46:00,86.5,65.1,29.93,West,264,1.0,4.0,49,0.00,CLR,,0.00,WeatherDisplay:10.37,2013-07-01 23:46:00,
2013-07-01 16:51:00,86.6,65.2,29.93,West,271,1.0,4.0,49,0.00,CLR,,0.00,WeatherDisplay:10.37,2013-07-01 23:51:00,
2013-07-01 16:56:00,86.3,64.3,29.93,West,270,1.0,5.0,48,0.00,CLR,,0.00,WeatherDisplay:10.37,2013-07-01 23:56:00,
2013-07-01 17:01:00,86.0,65.2,29.93,WSW,256,0.0,3.0,50,0.00,CLR,,0.00,WeatherDisplay:10.37,2013-07-02 00:01:00,
2013-07-01 17:06:00,85.8,64.4,29.93,West,269,0.0,2.0,49,0.00,CLR,,0.00,WeatherDisplay:10.37,2013-07-02 00:06:00,
2013-07-01 17:11:00,86.0,65.2,29.93,WSW,258,0.0,2.0,50,0.00,CLR,,0.00,WeatherDisplay:10.37,2013-07-02 00:11:00,
2013-07-01 17:16:00,86.2,64.2,29.93,WNW,289,1.0,3.0,48,0.00,CLR,,0.00,WeatherDisplay:10.37,2013-07-02 00:16:00,
2013-07-01 17:21:00,86.1,64.1,29.93,WNW,293,1.0,3.0,48,0.00,CLR,,0.00,WeatherDisplay:10.37,2013-07-02 00:21:00,
2013-07-01 17:26:00,85.9,64.5,29.93,ENE,65,0.0,3.0,49,0.00,CLR,,0.00,WeatherDisplay:10.37,2013-07-02 00:26:00,
2013-07-01 17:31:00,86.3,64.3,29.93,NW,317,0.0,2.0,48,0.00,CLR,,0.00,WeatherDisplay:10.37,2013-07-02 00:31:00,
2013-07-01 17:36:00,86.1,63.5,29.92,NE,48,1.0,3.0,47,0.00,CLR,,0.00,WeatherDisplay:10.37,2013-07-02 00:36:00,
2013-07-01 17:41:00,85.9,63.3,29.92,East,88,0.0,1.0,47,0.00,CLR,,0.00,WeatherDisplay:10.37,2013-07-02 00:41:00,
2013-07-01 17:46:00,85.7,63.8,29.92,East,90,2.0,5.0,48,0.00,CLR,,0.00,WeatherDisplay:10.37,2013-07-02 00:46:00,
2013-07-01 17:51:00,85.7,63.8,29.93,East,89,0.0,1.0,48,0.00,CLR,,0.00,WeatherDisplay:10.37,2013-07-02 00:51:00,
2013-07-01 17:56:00,86.1,63.5,29.93,ESE,107,1.0,2.0,47,0.00,CLR,,0.00,WeatherDisplay:10.37,2013-07-02 00:56:00,
2013-07-01 18:01:00,86.3,64.3,29.93,WSW,258,1.0,3.0,48,0.00,CLR,,0.00,WeatherDisplay:10.37,2013-07-02 01:01:00,
2013-07-01 18:06:00,86.7,64.1,29.93,SW,234,1.0,2.0,47,0.00,CLR,,0.00,WeatherDisplay:10.37,2013-07-02 01:06:00,
2013-07-01 18:11:00,87.3,64.0,29.93,SSW,209,1.0,3.0,46,0.00,CLR,,0.00,WeatherDisplay:10.37,2013-07-02 01:11:00,
2013-07-01 18:16:00,88.2,64.2,29.93,WSW,252,1.0,2.0,45,0.00,CLR,,0.00,WeatherDisplay:10.37,2013-07-02 01:16:00,
2013-07-01 18:21:00,88.5,65.0,29.93,WNW,285,0.0,4.0,46,0.00,CLR,,0.00,WeatherDisplay:10.37,2013-07-02 01:21:00,
2013-07-01 18:26:00,88.8,66.0,29.93,West,265,1.0,3.0,47,0.00,CLR,,0.00,WeatherDisplay:10.37,2013-07-02 01:26:00,
2013-07-01 18:31:00,89.2,66.3,29.92,SW,215,0.0,2.0,47,0.00,CLR,,0.00,WeatherDisplay:10.37,2013-07-02 01:31:00,
2013-07-01 18:36:00,89.1,67.5,29.92,SE,134,0.0,1.0,49,0.00,CLR,,0.00,WeatherDisplay:10.37,2013-07-02 01:36:00,
2013-07-01 18:41:00,89.8,66.9,29.92,ESE,111,1.0,2.0,47,0.00,CLR,,0.00,WeatherDisplay:10.37,2013-07-02 01:41:00,
2013-07-01 18:46:00,89.0,66.8,29.92,North,3,0.0,1.0,48,0.00,CLR,,0.00,WeatherDisplay:10.37,2013-07-02 01:46:00,
2013-07-01 18:51:00,87.9,65.7,29.93,NE,56,2.0,3.0,48,0.00,CLR,,0.00,WeatherDisplay:10.37,2013-07-02 01:51:00,
2013-07-01 18:56:00,86.0,65.2,29.93,NE,51,1.0,5.0,50,0.00,CLR,,0.00,WeatherDisplay:10.37,2013-07-02 01:56:00,
2013-07-01 19:01:00,85.2,65.0,29.93,NNE,25,1.0,3.0,51,0.00,CLR,,0.00,WeatherDisplay:10.37,2013-07-02 02:01:00,
2013-07-01 19:06:00,85.2,65.6,29.92,North,3,1.0,2.0,52,0.00,CLR,,0.00,WeatherDisplay:10.37,2013-07-02 02:06:00,
2013-07-01 19:11:00,85.0,65.4,29.93,NE,52,1.0,2.0,52,0.00,CLR,,0.00,WeatherDisplay:10.37,2013-07-02 02:11:00,
2013-07-01 19:16:00,84.2,64.7,29.93,East,91,1.0,4.0,52,0.00,CLR,,0.00,WeatherDisplay:10.37,2013-07-02 02:16:00,
2013-07-01 19:21:00,83.8,64.9,29.93,East,91,0.0,1.0,53,0.00,CLR,,0.00,WeatherDisplay:10.37,2013-07-02 02:21:00,
2013-07-01 19:26:00,84.3,64.8,29.93,ENE,68,1.0,2.0,52,0.00,CLR,,0.00,WeatherDisplay:10.37,2013-07-02 02:26:00,
2013-07-01 19:31:00,83.8,63.7,29.93,NE,35,1.0,3.0,51,0.00,CLR,,0.00,WeatherDisplay:10.37,2013-07-02 02:31:00,
2013-07-01 19:36:00,83.1,63.7,29.93,NNE,12,1.0,4.0,52,0.00,CLR,,0.00,WeatherDisplay:10.37,2013-07-02 02:36:00,
2013-07-01 19:41:00,82.8,63.9,29.93,North,5,1.0,3.0,53,0.00,CLR,,0.00,WeatherDisplay:10.37,2013-07-02 02:41:00,
2013-07-01 19:51:00,81.7,63.4,29.94,ENE,60,1.0,3.0,54,0.00,CLR,,0.00,WeatherDisplay:10.37,2013-07-02 02:51:00,
2013-07-01 19:56:00,81.3,63.0,29.94,ENE,76,1.0,3.0,54,0.00,CLR,,0.00,WeatherDisplay:10.37,2013-07-02 02:56:00,
2013-07-01 20:01:00,80.8,63.2,29.93,NE,44,0.0,2.0,55,0.00,CLR,,0.00,WeatherDisplay:10.37,2013-07-02 03:01:00,
2013-07-01 20:06:00,80.5,63.4,29.93,NE,44,0.0,1.0,56,0.00,CLR,,0.00,WeatherDisplay:10.37,2013-07-02 03:06:00,
2013-07-01 20:11:00,80.0,63.4,29.93,NE,41,0.0,1.0,57,0.00,CLR,,0.00,WeatherDisplay:10.37,2013-07-02 03:11:00,
2013-07-01 20:16:00,79.4,63.3,29.93,ENE,63,0.0,1.0,58,0.00,CLR,,0.00,WeatherDisplay:10.37,2013-07-02 03:16:00,
2013-07-01 20:21:00,78.8,63.3,29.94,ENE,78,0.0,1.0,59,0.00,CLR,,0.00,WeatherDisplay:10.37,2013-07-02 03:21:00,
2013-07-01 20:26:00,78.4,62.9,29.94,ENE,78,0.0,1.0,59,0.00,CLR,,0.00,WeatherDisplay:10.37,2013-07-02 03:26:00,
2013-07-01 20:31:00,78.0,63.0,29.94,ENE,78,0.0,1.0,60,0.00,CLR,,0.00,WeatherDisplay:10.37,2013-07-02 03:31:00,
2013-07-01 20:36:00,77.6,62.6,29.94,NE,55,0.0,2.0,60,0.00,CLR,,0.00,WeatherDisplay:10.37,2013-07-02 03:36:00,
2013-07-01 20:41:00,77.2,62.7,29.94,NE,42,0.0,1.0,61,0.00,CLR,,0.00,WeatherDisplay:10.37,2013-07-02 03:41:00,
2013-07-01 20:46:00,76.9,62.9,29.94,NE,41,0.0,1.0,62,0.00,CLR,,0.00,WeatherDisplay:10.37,2013-07-02 03:46:00,
2013-07-01 20:51:00,76.5,62.5,29.94,NE,53,0.0,3.0,62,0.00,CLR,,0.00,WeatherDisplay:10.37,2013-07-02 03:51:00,
2013-07-01 20:56:00,76.2,62.7,29.95,East,90,1.0,3.0,63,0.00,CLR,,0.00,WeatherDisplay:10.37,2013-07-02 03:56:00,
2013-07-01 21:01:00,76.0,62.5,29.95,East,95,0.0,1.0,63,0.00,CLR,,0.00,WeatherDisplay:10.37,2013-07-02 04:01:00,
2013-07-01 21:06:00,75.8,62.3,29.95,ESE,103,1.0,2.0,63,0.00,CLR,,0.00,WeatherDisplay:10.37,2013-07-02 04:06:00,
2013-07-01 21:11:00,75.5,62.5,29.95,ESE,103,0.0,0.0,64,0.00,CLR,,0.00,WeatherDisplay:10.37,2013-07-02 04:11:00,
2013-07-01 21:16:00,75.2,62.2,29.95,ESE,103,0.0,1.0,64,0.00,CLR,,0.00,WeatherDisplay:10.37,2013-07-02 04:16:00,
2013-07-01 21:21:00,75.0,62.4,29.96,ESE,103,0.0,1.0,65,0.00,CLR,,0.00,WeatherDisplay:10.37,2013-07-02 04:21:00,
2013-07-01 21:26:00,74.7,62.6,29.96,ESE,103,0.0,0.0,66,0.00,CLR,,0.00,WeatherDisplay:10.37,2013-07-02 04:26:00,
2013-07-01 21:31:00,74.4,62.7,29.96,ESE,103,0.0,1.0,67,0.00,CLR,,0.00,WeatherDisplay:10.37,2013-07-02 04:31:00,
2013-07-01 21:36:00,74.1,62.9,29.96,ESE,103,0.0,1.0,68,0.00,CLR,,0.00,WeatherDisplay:10.37,2013-07-02 04:36:00,
2013-07-01 21:41:00,73.7,62.5,29.96,ESE,103,0.0,1.0,68,0.00,CLR,,0.00,WeatherDisplay:10.37,2013-07-02 04:41:00,
2013-07-01 21:46:00,73.5,62.3,29.97,NE,55,0.0,1.0,68,0.00,CLR,,0.00,WeatherDisplay:10.37,2013-07-02 04:46:00,
2013-07-01 21:56:00,73.1,61.9,29.97,NNW,328,0.0,1.0,68,0.00,CLR,,0.00,WeatherDisplay:10.37,2013-07-02 04:56:00,
2013-07-01 22:01:00,72.9,62.1,29.96,NNE,32,0.0,1.0,69,0.00,CLR,,0.00,WeatherDisplay:10.37,2013-07-02 05:01:00,
2013-07-01 22:11:00,72.5,61.7,29.97,NE,45,1.0,2.0,69,0.00,CLR,,0.00,WeatherDisplay:10.37,2013-07-02 05:11:00,
2013-07-01 22:16:00,72.3,62.0,29.97,North,3,0.0,2.0,70,0.00,CLR,,0.00,WeatherDisplay:10.37,2013-07-02 05:16:00,
2013-07-01 22:21:00,72.0,61.7,29.97,North,352,0.0,0.0,70,0.00,CLR,,0.00,WeatherDisplay:10.37,2013-07-02 05:21:00,
2013-07-01 22:26:00,71.8,61.5,29.97,North,356,0.0,1.0,70,0.00,CLR,,0.00,WeatherDisplay:10.37,2013-07-02 05:26:00,
2013-07-01 22:31:00,71.6,61.3,29.97,North,6,0.0,1.0,70,0.00,CLR,,0.00,WeatherDisplay:10.37,2013-07-02 05:31:00,
2013-07-01 22:41:00,71.2,61.3,29.97,NNE,22,0.0,3.0,71,0.00,CLR,,0.00,WeatherDisplay:10.37,2013-07-02 05:41:00,
2013-07-01 22:46:00,71.0,60.7,29.97,ENE,57,1.0,4.0,70,0.00,CLR,,0.00,WeatherDisplay:10.37,2013-07-02 05:46:00,
2013-07-01 22:51:00,70.9,60.2,29.97,ENE,67,0.0,2.0,69,0.00,CLR,,0.00,WeatherDisplay:10.37,2013-07-02 05:51:00,
2013-07-01 22:56:00,70.7,60.0,29.98,ENE,78,0.0,1.0,69,0.00,CLR,,0.00,WeatherDisplay:10.37,2013-07-02 05:56:00,
2013-07-01 23:01:00,70.5,60.2,29.98,ENE,65,0.0,2.0,70,0.00,CLR,,0.00,WeatherDisplay:10.37,2013-07-02 06:01:00,
2013-07-01 23:06:00,70.3,60.1,29.98,NE,53,0.0,2.0,70,0.00,CLR,,0.00,WeatherDisplay:10.37,2013-07-02 06:06:00,
2013-07-01 23:11:00,70.1,59.9,29.98,ENE,73,0.0,1.0,70,0.00,CLR,,0.00,WeatherDisplay:10.37,2013-07-02 06:11:00,
2013-07-01 23:16:00,69.9,60.1,29.99,ENE,73,0.0,0.0,71,0.00,CLR,,0.00,WeatherDisplay:10.37,2013-07-02 06:16:00,
2013-07-01 23:21:00,69.7,59.5,29.99,NE,47,0.0,2.0,70,0.00,CLR,,0.00,WeatherDisplay:10.37,2013-07-02 06:21:00,
2013-07-01 23:26:00,69.6,59.8,30.00,North,355,1.0,2.0,71,0.00,CLR,,0.00,WeatherDisplay:10.37,2013-07-02 06:26:00,
2013-07-01 23:31:00,69.7,59.8,30.00,WNW,293,0.0,1.0,71,0.00,CLR,,0.00,WeatherDisplay:10.37,2013-07-02 06:31:00,
2013-07-01 23:36:00,69.5,59.7,30.00,WNW,292,0.0,1.0,71,0.00,CLR,,0.00,WeatherDisplay:10.37,2013-07-02 06:36:00,
2013-07-01 23:41:00,69.2,59.4,30.00,NW,318,0.0,2.0,71,0.00,CLR,,0.00,WeatherDisplay:10.37,2013-07-02 06:41:00,
2013-07-01 23:46:00,68.9,58.8,30.00,NNW,340,0.0,1.0,70,0.00,CLR,,0.00,WeatherDisplay:10.37,2013-07-02 06:46:00,
2013-07-01 23:51:00,68.6,58.4,30.01,NW,319,0.0,1.0,70,0.00,CLR,,0.00,WeatherDisplay:10.37,2013-07-02 06:51:00,
2013-07-01 23:56:00,68.4,58.2,30.01,North,356,0.0,1.0,70,0.00,CLR,,0.00,WeatherDisplay:10.37,2013-07-02 06:56:00,